Location: Demmingen
(48.6757°N, 10.4375°E)
Time: 09:25:46
(UTC+00:00)

CZ-2C R/B - Pass Details

Date: 10 August 2024
Orbit: 703 x 903 km, 98.2° (Epoch: 16 September)

Event Time Altitude Azimuth Distance (km) Brightness Sun altitude
Rises 02:55:53 0° 1° (N) 3,165 6.8 -10.5°
Reaches altitude 10° 02:58:43 10° 344° (NNW) 2,266 5.7 -10.2°
Maximum altitude 03:02:07 19° 301° (WNW) 1,767 4.7 -9.7°
Drops below altitude 10° 03:05:36 10° 258° (WSW) 2,337 4.9 -9.2°
Enters shadow 03:05:48 - 256° (WSW) 2,393 5.0 -9.2°
